Back to catalog

TAIJING-3 04

AliveMilitarySSO
NORAD 64088·PAYLOAD·🇨🇳 China
This satellite name has not been confirmed by official sources yet.

Launched May 21, 2025 from Jiuquan Satellite Launch Center

Loading…

Next Passes (next 24 hours)

TLE

FreshSource: Space-Track

Epoch: Sep 14, 2026, 15:23 UTC

1 64088U 25108B   26257.64121100  .00006279  00000-0  29709-3 0  9993
2 64088  97.4659 332.4448 0008837  66.3520 293.8642 15.19684244 72944

Track TAIJING-3 04 in real time with AllMySat

Download on the App Store